Edwards AFB North Base, CA

10:33 PM PDT on August 25, 2019 (GMT -0700)
Edwards AFB North Base

Weather History for K9L2 - May, 2019

Change the Weather History Date:

Monday, May 6, 2019

  Actual Average (WUND) Record (WUND)
Temperature  
Mean Temperature 60 °F -  
Max Temperature 70 °F - - (-1)
Min Temperature 49 °F - - (-1)
Degree Days  
Heating Degree Days 6    
Growing Degree Days 10 (Base 50)    
Moisture  
Dew Point 41 °F    
Average Humidity 50    
Maximum Humidity 80    
Minimum Humidity 31    
Precipitation  
Precipitation 0.00 in - - ()
Sea Level Pressure  
Sea Level Pressure 29.80 in    
Wind  
Wind Speed 17 mph (SSW)    
Max Wind Speed 25 mph    
Max Gust Speed 32 mph    
Visibility 9 miles    
Events      
Averages and records for this station are not official NWS values.
T = Trace of Precipitation, MM = Missing Value Source: NWS Daily Summary

Daily Weather History Graph

Daily Weather History Graph

Search for Another Location

Airport or City:

Astronomy

May. 06, 2019 Rise Set
Actual Time 5:55 AM PDT 7:40 PM PDT
Civil Twilight 5:28 AM PDT 8:08 PM PDT
Nautical Twilight 4:55 AM PDT 8:41 PM PDT
Astronomical Twilight 4:20 AM PDT 9:16 PM PDT
Moon 7:21 AM PDT (5/6) 9:41 PM PDT (5/6)
Length of Visible Light 14h 40m
Length of Day
13h 45m
Waxing Crescent, 4% of the Moon is Illuminated
May 6
Waxing Crescent
May 11
First Quarter
May 18
Full
May 26
Last Quarter
Jun 3
New

Hourly Weather History & Observations

Time (PDT) Temp. Dew Point Humidity Pressure Visibility Wind Dir Wind Speed Gust Speed Precip Events Conditions
12:58 AM 54.1 °F 43.0 °F 66% 29.75 in 10.0 mi SSW 18.4 mph 24.2 mph N/A   Clear
1:58 AM 52.9 °F 40.3 °F 62% 29.75 in 10.0 mi SSW 16.1 mph 25.3 mph N/A   Clear
2:58 AM 52.5 °F 39.4 °F 61% 29.76 in 10.0 mi SSW 19.6 mph - N/A   Clear
3:58 AM 51.1 °F 41.2 °F 69% 29.77 in 10.0 mi SSW 15.0 mph 24.2 mph N/A   Clear
4:58 AM 49.8 °F 43.3 °F 78% 29.78 in 10.0 mi SW 16.1 mph 27.6 mph N/A   Clear
5:58 AM 49.6 °F 43.7 °F 80% 29.78 in 9.0 mi SW 16.1 mph - N/A   Clear
6:58 AM 51.6 °F 43.5 °F 74% 29.80 in 9.0 mi SSW 16.1 mph 23.0 mph N/A   Clear
7:58 AM 55.0 °F 43.0 °F 64% 29.81 in 9.0 mi SSW 25.3 mph 31.1 mph N/A   Clear
8:58 AM 58.6 °F 42.4 °F 55% 29.81 in 8.0 mi SSW 17.3 mph 25.3 mph N/A   Clear
9:58 AM 62.1 °F 42.4 °F 49% 29.81 in 8.0 mi SSW 17.3 mph 26.5 mph N/A   Clear
10:58 AM 65.5 °F 41.2 °F 41% 29.81 in 9.0 mi SSW 17.3 mph 25.3 mph N/A   Clear
11:58 AM 66.7 °F 39.7 °F 37% 29.81 in 9.0 mi SSW 18.4 mph 25.3 mph N/A   Clear
12:58 PM 68.0 °F 39.9 °F 36% 29.81 in 9.0 mi SW 19.6 mph 27.6 mph N/A   Clear
1:58 PM 69.4 °F 39.2 °F 33% 29.80 in 9.0 mi SW 17.3 mph 23.0 mph N/A   Clear
2:11 PM 69.8 °F 39.2 °F 33% 29.80 in 9.0 mi South 18.4 mph 25.3 mph N/A   Clear
2:58 PM 70.2 °F 39.4 °F 33% 29.80 in 9.0 mi SSW 16.1 mph 32.2 mph N/A   Clear
3:58 PM 70.3 °F 37.9 °F 31% 29.79 in 9.0 mi SSW 18.4 mph 26.5 mph N/A   Clear
4:58 PM 68.0 °F 38.7 °F 34% 29.78 in 9.0 mi SSW 15.0 mph 29.9 mph N/A   Partly Cloudy
5:05 PM 68.0 °F 39.2 °F 35% 29.78 in 9.0 mi South 20.7 mph 28.8 mph N/A   Scattered Clouds
5:13 PM 69.8 °F 39.2 °F 33% 29.78 in 9.0 mi SW 15.0 mph 29.9 mph N/A   Scattered Clouds
5:27 PM 69.8 °F 37.4 °F 31% 29.79 in 8.0 mi WSW 17.3 mph - N/A   Scattered Clouds
5:58 PM 69.8 °F 37.6 °F 31% 29.79 in 7.0 mi WSW 15.0 mph - N/A   Clear
6:43 PM 68.0 °F 37.4 °F 33% 29.80 in 6.0 mi West 11.5 mph - N/A   Haze
6:58 PM 67.1 °F 38.7 °F 35% 29.80 in 7.0 mi WSW 13.8 mph - N/A   Clear
7:58 PM 61.2 °F 42.8 °F 51% 29.82 in 7.0 mi SSW 15.0 mph 20.7 mph N/A   Clear
8:58 PM 57.0 °F 43.9 °F 61% 29.84 in 9.0 mi SSW 17.3 mph - N/A   Clear
9:58 PM 55.9 °F 43.2 °F 62% 29.85 in 10.0 mi SSW 15.0 mph - N/A   Clear
10:58 PM 54.9 °F 43.2 °F 65% 29.86 in 10.0 mi South 12.7 mph - N/A   Clear
11:58 PM 54.0 °F 42.8 °F 66% 29.86 in 10.0 mi South 11.5 mph - N/A   Clear